EW7114 Weather Reports


time (UTC)temp
C
wind
direction
speed
KPH
gust
KPH
rain 1hr
cm
rain 24hr
cm
rain mn
cm
humidity
%
barometer
mb
20260906145050 21 178 19.3 33.8 0.00 0.00 0.00 42 1005.1
20260906144559 21 157 22.5 30.6 0.00 0.00 0.00 42 1005.1
20260906144049 21 153 19.3 30.6 0.00 0.00 0.00 44 1005.1
20260906143553 21 134 24.1 30.6 0.00 0.00 0.00 43 1005.1
20260906143053 20 161 22.5 33.8 0.00 0.00 0.00 44 1005.2
20260906142548 20 130 22.5 30.6 0.00 0.00 0.00 44 1005.1
20260906142051 20 159 19.3 27.4 0.00 0.00 0.00 46 1005.1
20260906141550 19 143 17.7 29.0 0.00 0.00 0.00 46 1005.1
20260906141047 19 138 20.9 29.0 0.00 0.00 0.00 46 1005.1
20260906140549 18 150 19.3 25.7 0.00 0.00 0.00 48 1005.1
20260906140046 17 136 14.5 22.5 0.00 0.00 0.00 50 1005.0
20260906135546 17 147 12.9 19.3 0.00 0.00 0.00 49 1005.1
20260906135046 16 143 12.9 20.9 0.00 0.00 0.00 49 1005.0
20260906134548 16 138 16.1 27.4 0.00 0.00 0.00 50 1005.0
20260906134045 16 155 17.7 27.4 0.00 0.00 0.00 50 1005.0
20260906133545 16 138 16.1 24.1 0.00 0.00 0.00 50 1004.9
20260906133046 16 150 17.7 24.1 0.00 0.00 0.00 48 1004.9
20260906132543 16 140 17.7 25.7 0.00 0.00 0.00 49 1004.7
20260906132042 16 154 12.9 19.3 0.00 0.00 0.00 50 1004.6
20260906131541 16 122 12.9 17.7 0.00 0.00 0.00 50 1004.6
20260906131040 15 175 11.3 17.7 0.00 0.00 0.00 50 1004.5
20260906130540 16 146 9.7 17.7 0.00 0.00 0.00 49 1004.5
20260906130040 16 144 12.9 20.9 0.00 0.00 0.00 49 1004.5
20260906125543 16 138 14.5 20.9 0.00 0.00 0.00 48 1004.4
20260906125038 16 136 14.5 27.4 0.00 0.00 0.00 48 1004.4
20260906124538 17 134 16.1 27.4 0.00 0.00 0.00 48 1004.4
20260906124040 16 110 14.5 24.1 0.00 0.00 0.00 49 1004.4
20260906123540 15 130 9.7 16.1 0.00 0.00 0.00 49 1004.4
20260906123041 15 135 11.3 19.3 0.00 0.00 0.00 48 1004.4
20260906122539 15 141 16.1 19.3 0.00 0.00 0.00 50 1004.4
20260906122035 15 149 14.5 19.3 0.00 0.00 0.00 49 1004.4
20260906121541 16 153 11.3 20.9 0.00 0.00 0.00 46 1004.4
20260906121033 16 126 12.9 20.9 0.00 0.00 0.00 48 1004.3
20260906120533 16 174 11.3 24.1 0.00 0.00 0.00 46 1004.4
20260906120031 16 150 14.5 24.1 0.00 0.00 0.00 46 1004.4
20260906115531 16 132 17.7 24.1 0.00 0.00 0.00 46 1004.3
20260906115031 17 147 17.7 24.1 0.00 0.00 0.00 46 1004.3
20260906114538 17 143 17.7 27.4 0.00 0.00 0.00 45 1004.3
20260906114029 17 120 17.7 24.1 0.00 0.00 0.00 44 1004.3
20260906113529 17 136 17.7 29.0 0.00 0.00 0.00 44 1004.2
20260906113043 17 133 16.1 25.7 0.00 0.00 0.00 45 1004.3
20260906112529 17 116 16.1 25.7 0.00 0.00 0.00 45 1004.3
20260906112028 16 139 16.1 25.7 0.00 0.00 0.00 46 1004.3
20260906111528 16 159 12.9 22.5 0.00 0.00 0.00 45 1004.3
20260906111027 16 155 16.1 25.7 0.00 0.00 0.00 44 1004.4
20260906110527 16 143 19.3 27.4 0.00 0.00 0.00 44 1004.4
20260906110026 17 157 17.7 27.4 0.00 0.00 0.00 43 1004.3
20260906105526 17 151 19.3 27.4 0.00 0.00 0.00 43 1004.3
20260906105028 16 132 17.7 27.4 0.00 0.00 0.00 43 1004.3
20260906104529 16 171 19.3 25.7 0.00 0.00 0.00 44 1004.3
20260906104024 16 145 16.1 27.4 0.00 0.00 0.00 43 1004.3
20260906103524 17 169 14.5 27.4 0.00 0.00 0.00 41 1004.3
20260906103023 16 121 17.7 25.7 0.00 0.00 0.00 43 1004.2
20260906102523 17 147 17.7 29.0 0.00 0.00 0.00 42 1004.2
20260906102025 18 137 19.3 29.0 0.00 0.00 0.00 41 1004.1
20260906101522 18 143 17.7 30.6 0.00 0.00 0.00 40 1004.1
20260906101021 17 132 19.3 30.6 0.00 0.00 0.00 41 1004.0
20260906100521 17 132 20.9 30.6 0.00 0.00 0.00 40 1004.2
20260906100021 18 153 19.3 32.2 0.00 0.00 0.00 39 1004.1
20260906095520 18 126 22.5 32.2 0.00 0.00 0.00 39 1004.1
20260906095019 17 144 17.7 30.6 0.00 0.00 0.00 38 1004.2
20260906094519 17 135 16.1 27.4 0.00 0.00 0.00 39 1004.1
20260906094018 18 155 19.3 27.4 0.00 0.00 0.00 38 1004.0
20260906093521 18 138 22.5 30.6 0.00 0.00 0.00 37 1004.1
20260906093021 18 156 17.7 30.6 0.00 0.00 0.00 37 1004.0
20260906092518 18 122 19.3 32.2 0.00 0.00 0.00 37 1004.1
20260906092019 18 120 22.5 30.6 0.00 0.00 0.00 37 1004.0
20260906091529 18 119 19.3 30.6 0.00 0.00 0.00 37 1004.0
20260906091018 18 136 20.9 30.6 0.00 0.00 0.00 36 1004.0
20260906090516 19 126 22.5 33.8 0.00 0.00 0.00 36 1003.9
20260906090016 19 167 22.5 33.8 0.00 0.00 0.00 36 1003.9
20260906085519 19 147 25.7 33.8 0.00 0.00 0.00 36 1003.8
20260906085014 19 137 19.3 30.6 0.00 0.00 0.00 36 1003.8
20260906084514 18 147 20.9 30.6 0.00 0.00 0.00 36 1003.9
20260906084015 18 124 12.9 29.0 0.00 0.00 0.00 36 1003.8
20260906083516 18 135 16.1 27.4 0.00 0.00 0.00 36 1003.8
20260906083015 18 159 16.1 29.0 0.00 0.00 0.00 36 1003.9
20260906082513 19 173 19.3 29.0 0.00 0.00 0.00 34 1003.8
20260906082014 19 143 19.3 33.8 0.00 0.00 0.00 35 1004.0
20260906081515 18 118 22.5 32.2 0.00 0.00 0.00 36 1003.8
20260906081011 17 138 20.9 27.4 0.00 0.00 0.00 38 1003.9
20260906080530 17 130 16.1 24.1 0.00 0.00 0.00 39 1003.9
20260906080009 17 135 19.3 25.7 0.00 0.00 0.00 38 1004.0
20260906075510 17 130 17.7 29.0 0.00 0.00 0.00 37 1004.0
20260906075008 17 140 20.9 29.0 0.00 0.00 0.00 37 1004.1
20260906074517 17 143 19.3 27.4 0.00 0.00 0.00 38 1004.0
20260906074006 16 127 19.3 24.1 0.00 0.00 0.00 38 1004.0
20260906073505 17 144 16.1 27.4 0.00 0.00 0.00 37 1004.0
20260906073003 17 140 20.9 27.4 0.00 0.00 0.00 34 1004.0
20260906072503 18 143 19.3 27.4 0.00 0.00 0.00 34 1003.9
20260906072002 18 151 19.3 25.7 0.00 0.00 0.00 33 1004.0
20260906071604 18 145 19.3 25.7 0.00 0.00 0.00 33 1004.0
20260906071058 19 140 19.3 27.4 0.00 0.00 0.00 32 1004.0
20260906070557 20 119 19.3 30.6 0.00 0.00 0.00 31 1004.0
20260906070056 21 157 17.7 30.6 0.00 0.00 0.00 29 1004.1
20260906065557 20 148 19.3 24.1 0.00 0.00 0.00 29 1004.1
20260906065054 21 161 17.7 22.5 0.00 0.00 0.00 29 1004.2
20260906064552 21 174 16.1 22.5 0.00 0.00 0.00 28 1004.2
20260906064051 21 159 19.3 25.7 0.00 0.00 0.00 28 1004.1
20260906063550 21 161 17.7 27.4 0.00 0.00 0.00 27 1004.1
20260906063050 21 143 22.5 32.2 0.00 0.00 0.00 27 1004.1
20260906062548 21 155 22.5 35.4 0.00 0.00 0.00 28 1004.1
20260906062051 22 137 24.1 32.2 0.00 0.00 0.00 27 1004.1
20260906061555 22 153 22.5 33.8 0.00 0.00 0.00 27 1004.0
20260906061046 22 138 24.1 33.8 0.00 0.00 0.00 28 1004.0
20260906060545 21 166 22.5 35.4 0.00 0.00 0.00 28 1004.0
20260906060044 21 164 19.3 29.0 0.00 0.00 0.00 29 1003.9
20260906055543 21 158 22.5 30.6 0.00 0.00 0.00 28 1003.9
20260906055043 21 161 17.7 27.4 0.00 0.00 0.00 28 1003.8
20260906054542 21 152 19.3 27.4 0.00 0.00 0.00 28 1003.7
20260906054042 21 155 17.7 27.4 0.00 0.00 0.00 27 1003.7
20260906053543 22 155 20.9 30.6 0.00 0.00 0.00 27 1003.7
20260906053042 22 128 20.9 30.6 0.00 0.00 0.00 27 1003.6
20260906052542 22 163 20.9 32.2 0.00 0.00 0.00 27 1003.7
20260906052041 22 157 22.5 33.8 0.00 0.00 0.00 28 1003.7
20260906051549 21 154 20.9 30.6 0.00 0.00 0.00 28 1003.8
20260906051042 22 156 20.9 30.6 0.00 0.00 0.00 28 1003.7
20260906050546 22 136 20.9 29.0 0.00 0.00 0.00 27 1003.7
20260906050047 22 145 22.5 29.0 0.00 0.00 0.00 28 1003.6
20260906045545 22 168 17.7 25.7 0.00 0.00 0.00 27 1003.7
20260906045041 22 153 19.3 29.0 0.00 0.00 0.00 28 1003.7
20260906044542 21 160 19.3 29.0 0.00 0.00 0.00 28 1003.8
20260906044042 21 151 19.3 27.4 0.00 0.00 0.00 28 1003.8
20260906043540 21 144 17.7 25.7 0.00 0.00 0.00 28 1003.8
20260906043040 21 138 19.3 25.7 0.00 0.00 0.00 28 1003.7
20260906042542 21 141 17.7 24.1 0.00 0.00 0.00 29 1003.6
20260906042039 21 136 17.7 25.7 0.00 0.00 0.00 29 1003.6
20260906041639 21 142 17.7 25.7 0.00 0.00 0.00 29 1003.5
20260906041038 21 155 17.7 25.7 0.00 0.00 0.00 29 1003.6
20260906040539 20 140 19.3 25.7 0.00 0.00 0.00 30 1003.4
20260906040042 20 145 12.9 19.3 0.00 0.00 0.00 30 1003.5
20260906035539 20 167 14.5 24.1 0.00 0.00 0.00 28 1003.4
20260906035040 20 143 16.1 24.1 0.00 0.00 0.00 28 1003.3
20260906034538 21 143 14.5 24.1 0.00 0.00 0.00 28 1003.3
20260906034037 21 136 17.7 24.1 0.00 0.00 0.00 28 1003.2
20260906033537 21 159 16.1 25.7 0.00 0.00 0.00 26 1003.2
20260906033045 21 138 17.7 25.7 0.00 0.00 0.00 27 1003.0
20260906032537 21 145 16.1 20.9 0.00 0.00 0.00 27 1003.0
20260906032039 22 128 16.1 24.1 0.00 0.00 0.00 27 1002.9
20260906031636 22 147 16.1 25.7 0.00 0.00 0.00 27 1002.9
20260906031036 22 143 17.7 27.4 0.00 0.00 0.00 27 1002.8
20260906030536 22 145 16.1 29.0 0.00 0.00 0.00 26 1002.7
20260906030038 22 153 19.3 29.0 0.00 0.00 0.00 26 1002.6
20260906025535 22 131 16.1 24.1 0.00 0.00 0.00 27 1002.5
20260906025036 22 145 16.1 24.1 0.00 0.00 0.00 26 1002.5
20260906024537 22 143 14.5 22.5 0.00 0.00 0.00 26 1002.4
20260906024035 23 147 17.7 20.9 0.00 0.00 0.00 24 1002.3
20260906023536 23 157 17.7 24.1 0.00 0.00 0.00 24 1002.3
20260906023037 23 159 17.7 24.1 0.00 0.00 0.00 24 1002.2
20260906022535 22 152 17.7 25.7 0.00 0.00 0.00 25 1002.1
20260906022034 22 155 14.5 19.3 0.00 0.00 0.00 26 1002.0
20260906021533 23 148 14.5 22.5 0.00 0.00 0.00 26 1001.9
20260906021033 23 168 14.5 22.5 0.00 0.00 0.00 25 1001.9
20260906020534 23 153 16.1 22.5 0.00 0.00 0.00 26 1001.8
20260906020034 24 162 16.1 27.4 0.00 0.00 0.00 24 1001.9
20260906015533 25 162 16.1 29.0 0.00 0.00 0.00 23 1001.9
20260906015033 25 157 16.1 30.6 0.00 0.00 0.00 23 1001.9
20260906014535 26 158 20.9 37.0 0.00 0.00 0.00 22 1001.9
20260906014032 26 188 22.5 37.0 0.00 0.00 0.00 21 1001.9
20260906013532 26 169 22.5 33.8 0.00 0.00 0.00 21 1001.8
20260906013033 26 165 24.1 37.0 0.00 0.00 0.00 21 1002.0
20260906012535 26 173 22.5 37.0 0.00 0.00 0.00 22 1002.0
20260906012031 27 165 20.9 32.2 0.00 0.00 0.00 22 1002.0
20260906011536 27 161 20.9 32.2 0.00 0.00 0.00 22 1002.0
20260906011031 27 134 25.7 38.6 0.00 0.00 0.00 21 1001.9
20260906010530 27 183 25.7 38.6 0.00 0.00 0.00 21 1002.0
20260906010032 27 176 24.1 41.8 0.00 0.00 0.00 21 1001.9
20260906005529 27 172 25.7 41.8 0.00 0.00 0.00 21 1001.9
20260906005029 28 193 27.4 37.0 0.00 0.00 0.00 21 1001.9
20260906004529 28 169 25.7 40.2 0.00 0.00 0.00 21 1001.9
20260906004028 28 169 25.7 40.2 0.00 0.00 0.00 21 1001.9
20260906003528 28 176 22.5 37.0 0.00 0.00 0.00 21 1001.9
20260906003028 28 157 22.5 37.0 0.00 0.00 0.00 22 1001.9
20260906002529 28 153 20.9 51.5 0.00 0.00 0.00 22 1001.9
20260906002026 28 129 32.2 51.5 0.00 0.00 0.00 22 1001.9
20260906001526 28 140 17.7 37.0 0.00 0.00 0.00 24 1001.9
20260906001025 28 151 25.7 38.6 0.00 0.00 0.00 23 1002.0
20260906000525 28 146 22.5 33.8 0.00 0.00 0.00 22 1001.9
20260906000025 28 180 19.3 38.6 0.00 0.00 0.00 22 1002.0
20260905235524 28 172 29.0 45.1 0.00 0.00 0.00 21 1002.2
20260905235025 28 135 32.2 46.7 0.00 0.00 0.00 22 1002.1
20260905234523 28 165 29.0 46.7 0.00 0.00 0.00 21 1002.0
20260905234024 29 179 29.0 45.1 0.00 0.00 0.00 21 1002.1
20260905233524 29 138 25.7 37.0 0.00 0.00 0.00 21 1002.2
20260905233021 29 190 19.3 40.2 0.00 0.00 0.00 21 1002.1
20260905232522 29 161 25.7 48.3 0.00 0.00 0.00 21 1002.2
20260905232021 29 170 30.6 48.3 0.00 0.00 0.00 21 1002.2
20260905231520 29 222 30.6 46.7 0.00 0.00 0.00 21 1002.1
20260905231021 29 164 24.1 43.5 0.00 0.00 0.00 21 1002.3
20260905230519 29 180 29.0 46.7 0.00 0.00 0.00 22 1002.4
20260905230019 29 172 25.7 46.7 0.00 0.00 0.00 22 1002.4
20260905225519 29 196 30.6 46.7 0.00 0.00 0.00 22 1002.4
20260905225021 29 185 32.2 41.8 0.00 0.00 0.00 21 1002.5
20260905224530 29 192 22.5 41.8 0.00 0.00 0.00 22 1002.5
20260905224021 29 152 24.1 48.3 0.00 0.00 0.00 21 1002.5
20260905223518 29 182 33.8 48.3 0.00 0.00 0.00 21 1002.7
20260905223017 29 153 20.9 41.8 0.00 0.00 0.00 21 1002.6
20260905222516 29 179 27.4 46.7 0.00 0.00 0.00 21 1002.6
20260905222015 29 212 35.4 46.7 0.00 0.00 0.00 20 1002.7
20260905221517 29 158 22.5 43.5 0.00 0.00 0.00 21 1002.8
20260905221019 29 174 30.6 43.5 0.00 0.00 0.00 20 1002.8
20260905220514 28 181 32.2 43.5 0.00 0.00 0.00 20 1002.9
20260905220014 28 171 27.4 46.7 0.00 0.00 0.00 22 1002.8
20260905215514 29 166 29.0 46.7 0.00 0.00 0.00 21 1002.8
20260905215013 28 198 22.5 45.1 0.00 0.00 0.00 21 1003.0
20260905214513 28 199 27.4 45.1 0.00 0.00 0.00 20 1003.0
20260905214013 28 188 29.0 38.6 0.00 0.00 0.00 20 1003.2
20260905213512 28 145 30.6 46.7 0.00 0.00 0.00 22 1003.1
20260905213012 28 160 32.2 43.5 0.00 0.00 0.00 21 1003.0
20260905212513 28 149 32.2 43.5 0.00 0.00 0.00 22 1003.2
20260905212015 27 167 37.0 46.7 0.00 0.00 0.00 22 1003.3
20260905211511 28 122 30.6 45.1 0.00 0.00 0.00 22 1003.2
20260905211011 28 184 29.0 45.1 0.00 0.00 0.00 22 1003.4
20260905210514 28 151 27.4 45.1 0.00 0.00 0.00 21 1003.4
20260905210010 28 175 29.0 43.5 0.00 0.00 0.00 21 1003.3
20260905205509 28 167 29.0 43.5 0.00 0.00 0.00 21 1003.5
20260905205009 28 145 33.8 49.9 0.00 0.00 0.00 21 1003.6
20260905204509 28 163 24.1 45.1 0.00 0.00 0.00 23 1003.5
20260905204008 28 158 29.0 45.1 0.00 0.00 0.00 21 1003.7
20260905203507 27 135 30.6 45.1 0.00 0.00 0.00 22 1003.6
20260905203008 27 185 22.5 41.8 0.00 0.00 0.00 22 1003.7
20260905202507 27 161 33.8 46.7 0.00 0.00 0.00 22 1003.8
20260905202006 27 147 24.1 49.9 0.00 0.00 0.00 23 1003.8
20260905201507 27 149 33.8 53.1 0.00 0.00 0.00 22 1003.8
20260905201010 27 155 40.2 53.1 0.00 0.00 0.00 23 1003.9
20260905200506 28 142 32.2 48.3 0.00 0.00 0.00 22 1003.8
20260905200004 28 173 30.6 48.3 0.00 0.00 0.00 23 1003.8
20260905195505 27 188 33.8 46.7 0.00 0.00 0.00 23 1003.8
20260905195007 27 155 32.2 54.7 0.00 0.00 0.00 24 1003.8
20260905194504 27 134 32.2 46.7 0.00 0.00 0.00 23 1003.9
20260905194103 27 177 30.6 40.2 0.00 0.00 0.00 22 1004.1
20260905193502 27 127 30.6 38.6 0.00 0.00 0.00 23 1004.1
20260905193004 27 143 29.0 45.1 0.00 0.00 0.00 23 1004.3
20260905192501 27 140 22.5 41.8 0.00 0.00 0.00 23 1004.3
20260905192100 27 182 30.6 41.8 0.00 0.00 0.00 22 1004.5
20260905191559 26 145 25.7 45.1 0.00 0.00 0.00 24 1004.5
20260905191059 26 164 29.0 45.1 0.00 0.00 0.00 23 1004.5
20260905190558 26 189 29.0 43.5 0.00 0.00 0.00 23 1004.6
20260905190059 26 144 29.0 43.5 0.00 0.00 0.00 23 1004.6
20260905185559 26 166 24.1 41.8 0.00 0.00 0.00 24 1004.7
20260905185058 26 137 29.0 41.8 0.00 0.00 0.00 23 1004.7
20260905184601 26 126 25.7 45.1 0.00 0.00 0.00 24 1004.9
20260905184057 26 149 25.7 45.1 0.00 0.00 0.00 23 1004.8
20260905183557 26 126 29.0 40.2 0.00 0.00 0.00 23 1005.0
20260905183059 26 186 22.5 38.6 0.00 0.00 0.00 24 1005.0
20260905182557 26 140 22.5 38.6 0.00 0.00 0.00 23 1005.2
20260905182056 26 151 24.1 41.8 0.00 0.00 0.00 24 1005.3
20260905181609 26 153 27.4 41.8 0.00 0.00 0.00 24 1005.4
20260905181057 26 147 20.9 41.8 0.00 0.00 0.00 25 1005.4
20260905180554 25 134 30.6 41.8 0.00 0.00 0.00 25 1005.5
20260905180053 25 131 30.6 45.1 0.00 0.00 0.00 26 1005.4
20260905175554 25 142 27.4 41.8 0.00 0.00 0.00 25 1005.4
20260905175055 25 165 30.6 40.2 0.00 0.00 0.00 26 1005.3
20260905174554 25 175 29.0 48.3 0.00 0.00 0.00 24 1005.5
20260905174052 25 167 32.2 54.7 0.00 0.00 0.00 25 1005.5
20260905173552 25 122 32.2 54.7 0.00 0.00 0.00 24 1005.4
20260905173051 25 128 29.0 38.6 0.00 0.00 0.00 26 1005.4
20260905172551 25 147 29.0 38.6 0.00 0.00 0.00 25 1005.4
20260905172049 25 124 27.4 41.8 0.00 0.00 0.00 24 1005.4
20260905171549 25 151 29.0 45.1 0.00 0.00 0.00 24 1005.5
20260905171048 25 137 29.0 45.1 0.00 0.00 0.00 25 1005.4
20260905170548 25 131 27.4 45.1 0.00 0.00 0.00 25 1005.4
20260905170050 25 180 33.8 46.7 0.00 0.00 0.00 25 1005.5
20260905165547 25 138 33.8 45.1 0.00 0.00 0.00 25 1005.5
20260905165048 25 139 32.2 45.1 0.00 0.00 0.00 25 1005.4
20260905164547 24 148 30.6 40.2 0.00 0.00 0.00 26 1005.4
20260905164050 24 152 30.6 41.8 0.00 0.00 0.00 25 1005.4
20260905163547 24 136 29.0 41.8 0.00 0.00 0.00 26 1005.4
20260905163049 24 145 30.6 38.6 0.00 0.00 0.00 26 1005.5
20260905162547 25 158 22.5 45.1 0.00 0.00 0.00 26 1005.4
20260905162045 25 135 22.5 40.2 0.00 0.00 0.00 26 1005.4
20260905161543 24 161 24.1 40.2 0.00 0.00 0.00 26 1005.4
20260905161043 23 122 27.4 38.6 0.00 0.00 0.00 28 1005.3
20260905160541 23 122 27.4 38.6 0.00 0.00 0.00 27 1005.5
20260905160108 23 138 27.4 33.8 0.00 0.00 0.00 27 1005.4
20260905155542 23 138 24.1 35.4 0.00 0.00 0.00 27 1005.4
20260905155139 23 153 24.1 35.4 0.00 0.00 0.00 28 1005.5
20260905154540 23 136 25.7 35.4 0.00 0.00 0.00 27 1005.5
20260905154039 23 149 22.5 35.4 0.00 0.00 0.00 27 1005.5
20260905153538 23 122 24.1 33.8 0.00 0.00 0.00 26 1005.5
20260905153037 23 131 20.9 32.2 0.00 0.00 0.00 27 1005.5
20260905152537 23 130 17.7 37.0 0.00 0.00 0.00 29 1005.6
20260905152034 22 116 24.1 37.0 0.00 0.00 0.00 27 1005.6
20260905151535 22 137 24.1 32.2 0.00 0.00 0.00 29 1005.6
20260905151032 22 124 22.5 33.8 0.00 0.00 0.00 31 1005.6
20260905150531 21 115 25.7 32.2 0.00 0.00 0.00 31 1005.5
20260905150030 21 126 24.1 32.2 0.00 0.00 0.00 32 1005.6
20260905145527 21 117 25.7 38.6 0.00 0.00 0.00 31 1005.6